Location: Kejimkujik National Park
(44.4000°N, 65.2200°W)
Time: 10:47:32
(UTC-04:00)

Envisat - Visible Passes

Search period start: 27 November 2020 00:00
Search period end: 07 December 2020 00:00
Orbit: 764 x 766 km, 98.1° (Epoch: 27 November)

Date Brightness Start Highest point End Pass type
(mag) Time Alt. Az. Time Alt. Az. Time Alt. Az.
27 Nov 5.0 05:30:35 10° NE 05:35:00 29° E 05:39:23 10° SSE visible
27 Nov 5.5 18:26:31 10° SW 18:30:32 23° W 18:34:36 10° NW visible
28 Nov 6.1 04:55:19 10° ENE 04:57:49 14° E 05:00:18 10° ESE visible
28 Nov 2.9 06:32:19 10° N 06:37:25 77° WNW 06:42:29 10° SSW visible
28 Nov 4.0 17:48:35 10° S 17:53:30 50° W 17:58:27 10° NNW visible
29 Nov 4.0 05:55:37 10° NNE 06:00:34 50° E 06:05:29 10° S visible
29 Nov 3.0 17:11:36 10° SSE 17:16:39 77° ENE 17:21:45 10° N visible
29 Nov 6.1 18:53:45 10° WSW 18:56:15 14° W 18:58:46 10° WNW visible
30 Nov 5.4 05:19:29 10° NE 05:23:31 23° E 05:27:32 10° SE visible
30 Nov 3.3 06:57:54 10° N 07:02:45 45° WNW 07:07:33 10° SW visible
30 Nov 5.1 18:14:40 10° SSW 18:19:04 29° W 18:23:29 10° NW visible
01 Dec 6.3 04:45:24 10° ENE 04:46:16 10° E 04:47:07 10° E visible
01 Dec 3.1 06:20:55 10° NNE 06:26:02 85° ESE 06:31:07 10° SSW visible
01 Dec 3.6 17:37:03 10° S 17:42:04 63° WSW 17:47:09 10° NNW visible
02 Dec 4.4 05:44:21 10° NNE 05:49:07 39° E 05:53:52 10° SSE visible
02 Dec 5.9 18:41:25 10° SW 18:44:43 17° W 18:48:03 10° NW visible
03 Dec 5.7 05:08:29 10° NE 05:12:02 19° E 05:15:32 10° SE visible
03 Dec 3.1 06:46:25 10° N 06:51:24 57° WNW 06:56:22 10° SSW visible
03 Dec 4.7 18:02:56 10° SSW 18:07:36 37° W 18:12:18 10° NNW visible
04 Dec 3.4 06:09:33 10° NNE 06:14:38 68° ESE 06:19:41 10° S visible
04 Dec 3.2 17:25:36 10° S 17:30:41 80° WSW 17:35:48 10° NNW visible
05 Dec 4.9 05:33:09 10° NNE 05:37:40 31° E 05:42:10 10° SSE visible
05 Dec 5.6 18:29:21 10° SW 18:33:13 22° W 18:37:07 10° NW visible
06 Dec 6.0 04:57:40 10° NE 05:00:30 15° E 05:03:19 10° ESE visible
06 Dec 2.9 06:34:58 10° N 06:40:03 71° WNW 06:45:05 10° SSW visible
06 Dec 4.2 17:51:18 10° S 17:56:10 46° W 18:01:03 10° NNW visible
